Location: Marsån
(66.4167°N, 22.2833°E)
Time: 11:18:04
(UTC+00:00)

SPOT 1/Viking Rocket - Pass Details

Date: 24 February 2024
Orbit: 775 x 791 km, 98.3° (Epoch: 15 April)

Event Time Altitude Azimuth Distance (km) Brightness Sun altitude
Rises 16:11:07 0° 128° (SE) 3,260 6.4 -5.4°
Reaches altitude 10° 16:13:30 10° 123° (ESE) 2,336 5.6 -5.6°
Maximum altitude 16:18:22 45° 52° (NE) 1,061 3.9 -6.1°
Drops below altitude 10° 16:23:18 10° 341° (NNW) 2,355 6.2 -6.6°
Sets 16:25:42 0° 335° (NNW) 3,290 7.0 -6.8°
